sat.trackr.live / text

‹ back to catalog

STARLINK-32863

NORAD 62968 · 2025-029W

PAYLOAD ACTIVE UNKNOWN

§ Identity

Operator
Country
US
Launch date
2025-02-11
Launch site
AFWTR
Launch vehicle
Mass (kg)
RCS (m²)

Purposes: comms

External: N2YO · Heavens-Above · Gunter

§ Orbital elements

Epoch: 2026-05-24T17:44:51.201600Z

Period
94.01 min
Inclination
53.1575°
Eccentricity
0.0001090
Mean motion
15.31700065 rev/d
Perigee alt
470.0 km
Apogee alt
471.5 km
Semi-major
6,848.9 km
B*
4.1824e-4
RAAN
239.0376°
Arg perigee
80.1980°
Mean anomaly
279.9145°
Rev number
7,210

§ Raw data

STARLINK-328631 62968U 25029W   26144.73948150  .00012636  00000+0  41824-3 0  99922 62968  53.1575 239.0376 0001090  80.1980 279.9145 15.31700065 72100

JSON: /api/v1/satellites/62968 · /tle

For live sub-satellite position, see the globe view (requires WebGL).

§ Visibility from observer

Set your observer location to see the next 7 days of passes ≥ 10°. The values pass through the URL so the page stays shareable.

No JS? Fill the form by hand. The geolocation button needs JavaScript.